Location: Bathurst
(33.4193°S, 149.5775°E)
Time: 01:13:58
(UTC+10:00)

A-11 Canister half - Pass Details

Date: 13 June 2021
Orbit: 1513 x 1687 km, 47.2° (Epoch: 24 July)

Event Time Altitude Azimuth Distance (km) Brightness Sun altitude
Rises 18:36:56 0° 291° (WNW) 4,692 13.2 -19.5°
Reaches altitude 10° 18:40:01 10° 287° (WNW) 3,732 12.2 -20.2°
Maximum altitude 18:49:21 59° 208° (SSW) 1,804 9.3 -22.0°
Enters shadow 18:55:07 27° 139° (SE) 2,740 9.9 -23.2°
